STARLINK-30427, 57865

Orbit data source: Space-Track

STARLINK-30427, 57865 is a payload satellite owned by SpaceX/Seattle (US) in LEO that was launched on Sat, 16 Sep 2023 UTC via an FALCON 9 launch vehicle from the Air Force Eastern Test Range (AFETR). Payload-class satellites include a variety of spacecraft equipped with specific instruments for various scientific and technological missions. These include communications satellites like Starlink; space stations such as the ISS; scientific satellites like the Hubble; Earth observation satellites from companies like Planet Labs, Umbra, and HawkEye 360; GPS; miniature CubeSats for education and research; and military/defense satellites.

Loading next visibility...
Identifier
57865, 2023-144B
Orbit
LEO
Country
Flag of USUS
Related business
Manufacturer
SpaceX/Seattle
Mission
Operational Commercial Communications
Bus & Motor
STARLINK V2M, Unknown motor
Mass
730 kg wet, ~700 kg dry
Launch date (UTC)
2023-09-16 (3 years ago)
Launch vehicle
FALCON 9
Launch site
Air Force Eastern Test Range (AFETR)
Object type
Payload
Rocket body
Debris
Shape & HBR
Box + 2 Pan, 17.7 m
Radar Cross Section
33.884 m², Large (>1 m²)

Expand to show TLE details & history
Last TLE update: 2 days ago

TLE from 2 days ago
0 STARLINK-30427
1 57865U 23144B   26171.11789077  .00002156  00000-0  87864-4 0  9993
2 57865  43.0021  66.6445 0001269 263.4352  96.6356 15.27575973153260
Epoch: 2026-06-20T02:49Z
TLE epoch observation values (Epoch: 2026-06-20T02:49:45.762Z)
Latitude
0.00003°
Longitude
115.86675°
Altitude
482.937 km
Speed
7.626 km/s
True Right ascension
04h 26m 34s
True Declination
0° 00' 00"
Sunlit
Object was in daylight at epoch
Visualization orbit readout
Latitude
Unknown
Longitude
Unknown
Altitude
Unknown
Speed
Unknown
Apparent Right ascension
Unknown
Apparent Declination
Unknown
Sunlit
N/A
Visualization observer readout
Local Sidereal Time
00:54:44
Azimuth
Unknown
Elevation
Unknown
Doppler factor
Unknown
Orbital elements
Apogee altitude
485.877 km
Perigee altitude
484.135 km
Semi-major axis
6,863.143 km
Eccentricity
0.00013
Inclination
43.0021°
RAAN
66.6445°
Arg. of periapsis
263.4352°
True anomaly
96.65004°
Mean anomaly
96.6356°
Eccentric anomaly
96.64282°
Mean motion
3.81732 °/min
Orbital period
94.31 mins
BSTAR
0.000087864
Loading maneuver chart data...
Computing Atmospheric mass density...
Loading historical data...
Loading historical data...
Loading historical data...
Loading historical data...
Loading historical data...
Loading historical data...
Loading historical data...

Documentation

Showing up to 5 results
|